[[{"header":{"parameterUnit":"m.s-1","parameterCategory":1,"la1":30.2991,"la2":30.254,"lo1":-89.0895,"lo2":-89.0444,"dy":0.0017,"dx":0.0017,"nx":28,"ny":28,"refTime":"2024-06-25T03:00:00:Z","depth":0,"parameterNumber":2,"parameterNumberName":"U-component_of_WINDS"},"data":[0,0,0,0,0,0,0,0,0,0,0,0,0,0,0,0,0,0,0,0,0,0,0,0,0,0,0,0,0,0,0,0,0,0,0,0,0,0,0,0,0,0,0,0,0,0,0,0,0,0,0,0,0,0,0,0,0,0,2.4186,2.4187,0,2.4254,2.4255,2.4256,2.4215,2.4213,2.4211,2.4209,2.4285,2.4289,2.4293,0,0,0,0,0,0,0,0,0,0,0,0,0,2.4028,2.4031,2.4186,2.4187,2.4188,2.4254,2.4255,2.4256,2.4216,2.4213,2.4211,2.4209,2.4284,2.4288,2.4293,0,0,0,0,0,0,0,0,0,0,0,0,0,2.4096,2.4032,2.4186,2.4175,2.4175,2.4254,2.4255,2.4256,2.4216,2.4213,2.421,2.4207,2.4282,2.4288,2.4294,2.4388,0,0,2.4311,2.4314,0,0,0,0,0,0,0,0,2.4092,2.4102,2.4176,2.4176,2.4176,2.4223,2.4227,2.4301,2.4217,2.4201,2.4209,2.4206,2.4267,2.4274,2.4293,2.4392,2.4395,2.4312,2.4315,2.4318,2.4319,0,0,0,0,0,0,0,2.4088,2.4099,2.4213,2.4177,2.4177,2.417,2.4176,2.4241,2.425,2.4202,2.4199,2.4207,2.4267,2.4288,2.4295,2.4396,2.4312,2.4317,2.432,2.4322,2.4576,2.4579,0,0,0,0,0,0,2.4083,2.4095,2.4211,2.4215,2.4126,2.4175,2.4182,2.4211,2.4249,2.4252,2.421,2.4205,2.428,2.4288,2.4297,2.4409,2.4318,2.4323,2.4326,2.4573,2.4577,2.458,0,0,0,0,0,0,2.408,2.4094,2.4208,2.4155,2.4168,2.4181,2.4214,2.4214,2.4235,2.4255,2.4257,2.4229,2.4278,2.4289,2.4366,2.4411,2.4326,2.4331,2.4569,2.4574,2.4579,2.4635,0,0,0,0,0,0,2.4075,2.4093,2.4127,2.4155,2.4171,2.4273,2.4216,2.4217,2.4244,2.4239,2.4274,2.4277,2.4276,2.4357,2.4371,2.4418,2.4335,2.4565,2.4571,2.4577,2.4629,2.4641,2.4652,0,0,0,0,0,2.407,2.4141,2.4128,2.4143,2.4214,2.4276,2.4285,2.4281,2.4248,2.4283,2.4297,2.4276,2.4405,2.4365,2.4381,2.443,2.4562,2.4569,2.4577,2.4624,2.4639,2.4651,0,0,0,0,0,0,2.4118,2.4144,2.4131,2.4213,2.4242,2.4269,2.4312,2.4297,2.4337,2.4331,2.4327,2.4335,2.4414,2.4431,2.4386,2.4524,2.4479,2.449,2.4509,2.4524,2.4535,2.4527,2.434,0,0,0,0,0,2.4138,2.4184,2.4206,2.4277,2.4292,2.43,2.4327,2.4322,2.4352,2.4365,2.4384,2.4416,2.4464,2.4495,2.4541,2.4633,2.464,2.4675,2.4686,2.4695,2.4703,2.4753,2.4769,2.4605,2.4605,2.4604,0,0,2.4181,2.4201,2.423,2.4287,2.4308,2.4358,2.4311,2.4365,2.4401,2.4374,2.4445,2.4461,2.4497,2.4581,2.462,2.4597,2.4751,2.4705,2.4712,2.4715,2.4762,2.4778,2.4792,2.461,2.4609,2.4608,0,0,2.4281,2.4302,2.4362,2.4385,2.4419,2.4425,2.444,2.4469,2.4477,2.455,2.453,2.4576,2.4659,2.4685,2.4709,2.4824,2.4806,2.484,2.4897,2.4946,2.4958,2.497,2.5009,2.5023,2.4849,2.4849,2.4849,0,2.4329,2.44,2.4396,2.4451,2.4477,2.4454,2.4516,2.454,2.4588,2.4607,2.4582,2.4685,2.4709,2.4798,2.4826,2.4848,2.4865,2.4833,2.4957,2.4968,2.4979,2.5016,2.5031,2.4852,2.4852,2.4852,2.4851,0,2.4457,2.4508,2.4553,2.4597,2.4629,2.4688,2.4694,2.4728,2.4722,2.4731,2.4806,2.4833,2.4883,2.4905,2.49,2.4995,2.498,2.4956,2.491,2.4998,2.5033,2.5047,2.4858,2.4856,2.4855,2.4854,0,0,2.4585,2.4629,2.4645,2.4665,2.4703,2.4742,2.4802,2.485,2.4878,2.4914,2.4963,2.5035,2.5013,2.5041,2.504,2.5083,2.517,2.5054,2.5055,2.5072,2.5276,2.529,2.5307,2.5161,2.5163,2.5166,2.5272,0,2.4686,2.4786,2.4785,2.4879,2.4926,2.4907,2.4959,2.4989,2.5,2.5043,2.5058,2.5107,2.5076,2.5093,2.5135,2.515,2.5211,2.5144,2.5206,2.5209,2.5193,2.5325,2.5341,2.5439,2.5286,2.5288,2.529,0,2.4815,2.4853,2.495,2.4982,2.5002,2.5048,2.5092,2.5134,2.5169,2.5174,2.5206,2.5199,2.5262,2.5217,2.5303,2.5258,2.5285,2.5297,2.5301,2.5303,2.5251,2.5329,2.5471,2.5485,2.5312,2.531,2.5308,0,2.4895,2.4972,2.5039,2.5058,2.5097,2.513,2.5149,2.518,2.521,2.525,2.5269,2.5318,2.5343,2.5382,2.5388,2.5355,2.5475,2.5431,2.5481,2.5481,2.5503,2.5501,2.5649,2.5527,2.5527,2.5527,2.5526,0,2.5005,2.5065,2.5076,2.5117,2.5185,2.5186,2.5254,2.527,2.5299,2.5345,2.5334,2.5378,2.5386,2.5432,2.5439,2.5508,2.5521,2.5528,2.5528,2.5526,2.5525,2.5541,2.5533,2.553,2.553,2.5529,2.5528,0,2.5103,2.5113,2.5186,2.5218,2.5228,2.5276,2.5304,2.5345,2.5357,2.5415,2.5429,2.5448,2.5502,2.5514,2.5579,2.5583,2.5666,2.5661,2.5653,2.5651,2.57,2.5694,2.586,2.5881,2.5748,2.575,2.5751,0,2.517,2.5216,2.5253,2.5282,2.5302,2.5349,2.5379,2.5384,2.5416,2.5461,2.5497,2.555,2.5591,2.5679,2.57,2.575,2.5744,2.58,2.5752,2.5749,2.5742,2.5738,2.5742,2.5807,2.5808,2.581,2.5811,0,2.5288,2.5291,2.5333,2.5379,2.5414,2.5451,2.5485,2.5511,2.5521,2.5558,2.5612,2.5645,2.5711,2.5764,2.5814,2.5835,2.5825,2.5826,2.584,2.5837,2.5829,2.5831,2.5674,2.5821,2.582,2.5819,2.5819,2.5818,2.537,2.541,2.5442,2.5491,2.5518,2.5551,2.559,2.5608,2.5653,2.5705,2.5708,2.5767,2.5804,2.587,2.5895,2.5943,2.5926,2.5946,2.5951,2.5955,2.5958,2.5825,2.5952,2.5952,2.5952,2.5952,2.5952,0,2.5484,2.5505,2.555,2.5598,2.5637,2.5625,2.5664,2.5697,2.5749,2.5783,2.5825,2.5889,2.5941,2.5967,2.6019,2.6052,2.6049,2.6065,2.6061,2.6066,2.5971,2.5953,2.6067,2.6067,2.6067,2.6067,2.6067,2.6067,2.5548,2.5614,2.5622,2.5702,2.5724,2.578,2.5803,2.5835,2.5862,2.5933,2.5975,2.5992,2.6024,2.6079,2.6126,2.6133,2.6152,2.617,2.6174,2.6084,2.6072,2.6061,2.6043,2.6175,2.6175,2.6264,2.6265,2.6266]},{"header":{"parameterUnit":"m.s-1","parameterCategory":1,"la1":30.2991,"la2":30.254,"lo1":-89.0895,"lo2":-89.0444,"dy":0.0017,"dx":0.0017,"nx":28,"ny":28,"refTime":"2024-06-25T03:00:00:Z","depth":0,"parameterNumber":3,"parameterNumberName":"V-component_of_WINDS"},"data":[0,0,0,0,0,0,0,0,0,0,0,0,0,0,0,0,0,0,0,0,0,0,0,0,0,0,0,0,0,0,0,0,0,0,0,0,0,0,0,0,0,0,0,0,0,0,0,0,0,0,0,0,0,0,0,0,0,0,4.2405,4.2407,0,4.2537,4.2538,4.254,4.2518,4.2516,4.2513,4.2511,4.2639,4.2645,4.265,0,0,0,0,0,0,0,0,0,0,0,0,0,4.2132,4.2137,4.2405,4.2407,4.2409,4.2536,4.2538,4.254,4.2518,4.2516,4.2513,4.251,4.2638,4.2644,4.2651,0,0,0,0,0,0,0,0,0,0,0,0,0,4.2255,4.2139,4.2405,4.2413,4.2415,4.2536,4.2538,4.254,4.2519,4.2515,4.2512,4.2509,4.2635,4.2643,4.2652,4.277,0,0,4.2677,4.268,0,0,0,0,0,0,0,0,4.2248,4.2265,4.241,4.2413,4.2416,4.2508,4.2489,4.2617,4.252,4.2479,4.2511,4.2507,4.2598,4.2609,4.2641,4.2776,4.2782,4.2678,4.2683,4.2686,4.2688,0,0,0,0,0,0,0,4.224,4.226,4.2457,4.2413,4.2416,4.2409,4.2423,4.2513,4.2556,4.2483,4.2481,4.2498,4.2598,4.2633,4.2644,4.2784,4.2677,4.2685,4.269,4.2693,4.3024,4.3028,0,0,0,0,0,0,4.223,4.2253,4.2453,4.2461,4.2322,4.2417,4.2432,4.2481,4.2555,4.2563,4.25,4.2496,4.262,4.2634,4.2648,4.2792,4.2686,4.2694,4.2699,4.3021,4.3025,4.3029,0,0,0,0,0,0,4.2224,4.2248,4.2448,4.2357,4.2382,4.2425,4.248,4.2486,4.252,4.2568,4.2575,4.2528,4.2618,4.2636,4.2741,4.2796,4.2698,4.2705,4.3016,4.3022,4.3027,4.3081,0,0,0,0,0,0,4.2216,4.2246,4.2292,4.2358,4.2387,4.2539,4.2484,4.2491,4.2535,4.2531,4.2596,4.2603,4.2617,4.2729,4.2749,4.2806,4.2712,4.3011,4.3019,4.3026,4.3074,4.3088,4.31,0,0,0,0,0,4.2206,4.23,4.2294,4.2319,4.2446,4.2543,4.2559,4.2574,4.254,4.2586,4.2617,4.2601,4.2788,4.2739,4.2762,4.2822,4.3008,4.3017,4.3025,4.3069,4.3085,4.3099,0,0,0,0,0,0,4.2236,4.2309,4.2303,4.2421,4.2476,4.2539,4.2597,4.2591,4.2655,4.2648,4.2663,4.2678,4.2784,4.2814,4.2759,4.2942,4.2893,4.2906,4.2918,4.2934,4.2947,4.2936,4.2718,0,0,0,0,0,4.2257,4.2332,4.239,4.2489,4.2517,4.2553,4.2596,4.2604,4.266,4.2682,4.2721,4.2775,4.2846,4.2892,4.296,4.308,4.3093,4.3133,4.3145,4.3155,4.3166,4.3232,4.325,4.3058,4.3058,4.3058,0,0,4.2299,4.2348,4.2394,4.2496,4.254,4.2615,4.2572,4.2653,4.2709,4.2694,4.2795,4.2826,4.2888,4.3001,4.3052,4.3029,4.3223,4.3166,4.3174,4.3179,4.3243,4.3261,4.3277,4.3064,4.3063,4.3062,0,0,4.2415,4.2461,4.2548,4.2594,4.2662,4.2686,4.2707,4.2772,4.2792,4.2895,4.2886,4.2952,4.3074,4.3118,4.3157,4.3294,4.3282,4.3316,4.338,4.3445,4.346,4.3473,4.3522,4.3539,4.3327,4.3327,4.3327,0,4.2458,4.2574,4.2593,4.2677,4.2722,4.2716,4.2804,4.2847,4.2932,4.2963,4.2936,4.3091,4.3131,4.3255,4.3289,4.3321,4.3345,4.3307,4.3457,4.347,4.3483,4.353,4.3548,4.3331,4.333,4.333,4.333,0,4.2624,4.2704,4.2767,4.2853,4.2906,4.2991,4.3022,4.3073,4.3078,4.3104,4.3209,4.3259,4.3337,4.3368,4.3371,4.3493,4.3476,4.3453,4.3403,4.3505,4.3549,4.3567,4.3336,4.3335,4.3334,4.3333,0,0,4.2758,4.2857,4.288,4.292,4.2996,4.3058,4.3143,4.3223,4.3266,4.3326,4.3397,4.3503,4.3483,4.3527,4.3536,4.3593,4.3699,4.3563,4.3565,4.3586,4.3836,4.3851,4.3872,4.3693,4.3696,4.3699,4.383,0,4.288,4.3033,4.3055,4.319,4.3264,4.3262,4.3336,4.3391,4.3419,4.3485,4.3515,4.359,4.3558,4.3585,4.3641,4.3674,4.3749,4.3665,4.3757,4.3761,4.374,4.3895,4.3911,4.4032,4.3848,4.3851,4.3853,0,4.3042,4.311,4.3254,4.3323,4.3355,4.3421,4.3497,4.3561,4.3623,4.364,4.3691,4.3694,4.3782,4.3732,4.3853,4.3795,4.3835,4.3857,4.3862,4.3869,4.3811,4.3905,4.4071,4.4089,4.388,4.3878,4.3876,0,4.3124,4.3252,4.3355,4.3389,4.3472,4.352,4.3556,4.3615,4.3662,4.3728,4.3759,4.3834,4.3874,4.3931,4.3955,4.3916,4.4074,4.4025,4.4089,4.4089,4.412,4.4118,4.4294,4.4149,4.4149,4.4148,4.4148,0,4.3257,4.3344,4.3394,4.3456,4.3555,4.3579,4.3675,4.371,4.3763,4.3832,4.3834,4.3898,4.3926,4.3994,4.4013,4.411,4.4128,4.4143,4.4147,4.4142,4.414,4.4166,4.4158,4.4153,4.4152,4.4151,4.415,0,4.3364,4.3401,4.3512,4.3584,4.3604,4.3673,4.3733,4.3794,4.3823,4.391,4.3932,4.3977,4.4058,4.4088,4.4186,4.4199,4.4311,4.4308,4.4291,4.4291,4.4353,4.4347,4.4551,4.4579,4.4417,4.4418,4.442,0,4.3445,4.3513,4.3593,4.3641,4.368,4.3757,4.3806,4.3834,4.3885,4.3963,4.4014,4.4096,4.4162,4.4292,4.4332,4.4407,4.4406,4.4473,4.4416,4.441,4.4406,4.4401,4.4408,4.4482,4.4483,4.4485,4.4486,0,4.3585,4.3601,4.3674,4.3754,4.3814,4.3878,4.3939,4.3978,4.4015,4.4072,4.4157,4.4209,4.4311,4.4392,4.447,4.4505,4.4502,4.4504,4.4523,4.4517,4.4504,4.4512,4.4318,4.4498,4.4497,4.4496,4.4495,4.4495,4.3681,4.3742,4.3809,4.389,4.3941,4.4,4.4061,4.41,4.4172,4.4259,4.4271,4.4362,4.4424,4.4529,4.4569,4.464,4.4621,4.4648,4.4655,4.4661,4.4665,4.4495,4.4654,4.4654,4.4653,4.4653,4.4653,0,4.382,4.3865,4.394,4.4028,4.4093,4.4088,4.4157,4.421,4.4291,4.4351,4.4418,4.4516,4.4596,4.4644,4.4724,4.4771,4.4771,4.4791,4.4786,4.4795,4.4677,4.4653,4.4789,4.4789,4.4789,4.4789,4.4789,4.4789,4.39,4.4004,4.4028,4.4157,4.42,4.4292,4.4331,4.4386,4.4434,4.4544,4.4612,4.4644,4.47,4.4784,4.4857,4.4869,4.4897,4.4919,4.4929,4.4817,4.4803,4.4789,4.4767,4.4925,4.4925,4.5041,4.5042,4.5043]}]]